GFSSGP_700_spd_024.txt.gz
Wind_Speed
16 13 13 12 8 9 10 7 4 7 8 6 3 8 6 4 10 4 9 6 2 10 14 14 14 16 12 10 9 11 12 12 10 11 12 15 20 24 22 23 25 24 23 25 26 22 17 12 13
18 16 15 14 10 13 11 10 12 8 5 4 0 3 4 4 9 6 10 4 5 9 11 12 11 17 16 15 12 12 14 15 13 12 13 14 16 19 21 20 21 23 24 26 26 25 24 18 11
20 18 17 12 18 20 7 12 9 1 5 5 1 1 5 6 7 7 3 3 6 8 10 9 8 12 15 15 14 13 13 13 13 13 13 12 14 16 18 19 19 20 21 28 29 30 28 26 17
21 19 20 20 19 19 14 15 5 1 8 4 3 4 7 7 8 6 4 6 7 8 11 6 5 10 12 11 12 10 9 11 11 12 12 12 12 14 16 17 18 18 20 22 25 28 31 31 26
19 21 24 23 26 19 19 13 2 3 7 5 1 4 1 12 8 5 5 4 5 9 10 7 9 11 12 12 9 9 9 9 9 10 13 13 13 12 13 15 16 17 18 20 22 22 24 28 30
20 24 20 31 23 23 20 17 8 5 8 1 7 1 5 6 5 6 2 2 3 4 5 4 9 12 13 16 15 12 11 11 10 11 14 16 15 15 15 15 15 15 17 18 20 21 21 22 26
21 26 30 28 18 26 20 16 15 8 6 10 5 6 2 5 9 7 7 8 6 5 3 7 11 14 11 16 18 18 16 13 13 13 14 18 18 18 18 18 16 16 17 18 19 20 21 21 23
22 26 32 33 27 21 11 15 16 12 6 10 9 11 9 5 3 6 8 7 10 11 10 11 16 14 13 19 22 17 19 19 16 16 15 17 21 22 21 21 20 18 18 19 20 21 21 22 23
28 31 35 34 32 23 16 18 22 22 17 8 4 11 9 2 5 7 9 11 11 17 14 14 16 18 19 16 16 16 17 21 22 18 19 18 19 23 25 24 24 21 22 23 22 22 23 24 24
36 40 39 31 30 27 25 20 21 29 29 24 14 13 12 19 15 14 13 12 13 14 21 20 19 19 19 18 19 20 20 19 20 17 16 21 22 20 25 27 28 25 24 27 25 24 26 26 27
42 48 38 36 31 31 29 30 28 36 35 30 31 31 28 29 28 26 23 14 14 16 17 19 21 18 22 23 24 24 24 23 23 17 15 19 24 23 22 25 28 27 28 28 28 26 28 27 27
47 49 44 40 37 34 33 36 40 40 41 37 37 34 34 43 39 40 39 31 21 22 21 21 19 22 25 26 27 26 25 26 24 21 17 18 22 25 21 22 25 27 29 30 30 29 32 29 28
51 51 48 45 42 39 38 40 42 48 42 40 41 38 42 38 44 45 45 41 33 28 26 25 26 26 27 30 29 30 28 27 26 23 22 20 26 28 25 23 24 26 28 30 29 30 33 31 32
53 51 51 48 46 42 42 45 44 51 39 40 40 40 40 40 44 44 41 46 42 35 34 33 36 33 32 31 29 30 30 31 26 27 25 23 26 31 29 27 26 27 25 27 26 29 32 33 33
52 51 44 49 48 47 43 52 60 50 44 45 41 39 40 43 45 46 43 43 40 42 43 41 38 31 32 29 30 31 28 27 25 29 21 24 33 31 32 30 27 28 23 25 27 30 32 34 33
41 43 50 53 44 42 36 63 55 50 46 48 47 46 43 43 49 48 48 48 48 45 37 31 29 30 32 30 31 29 30 27 27 28 28 20 31 30 31 30 29 30 22 28 32 32 34 32 30
36 42 45 44 44 34 43 68 54 46 46 49 49 49 50 48 46 47 51 48 45 44 40 28 29 31 31 33 33 32 26 30 29 30 27 24 25 25 29 29 28 24 24 26 34 33 33 29 28
34 36 29 28 30 28 41 61 50 46 44 47 47 46 48 52 51 47 47 48 48 41 30 30 29 26 26 30 34 32 29 28 31 32 25 22 22 27 28 24 25 26 23 28 31 32 29 28 29
15 21 18 19 21 19 29 37 39 37 43 46 46 46 45 47 48 50 50 45 38 32 28 28 26 28 30 29 30 32 32 30 30 28 22 21 24 26 23 24 23 26 26 28 31 29 28 28 30
37 24 17 15 22 27 35 41 42 44 49 50 49 47 46 44 41 39 37 34 27 24 25 28 29 31 23 25 26 29 31 30 28 23 22 25 24 23 23 23 23 29 29 29 27 27 26 27 24
23 31 32 26 24 25 28 43 47 49 50 49 49 46 43 39 34 28 28 27 27 27 27 29 30 27 25 23 25 27 25 30 27 24 26 24 21 21 20 22 27 29 27 24 26 25 23 21 19
26 17 13 13 15 20 24 21 44 46 48 46 45 43 41 38 34 26 24 26 28 27 27 27 30 29 26 24 26 27 20 25 24 23 23 23 23 19 22 23 27 24 23 24 23 21 18 15 16
26 26 23 20 17 23 30 17 58 31 39 37 33 32 32 32 31 30 32 32 32 31 28 25 28 29 30 24 21 21 18 23 26 25 27 24 19 19 22 26 25 23 23 19 19 16 13 12 13
15 14 19 16 21 10 31 21 57 39 42 32 32 28 26 17 16 17 15 19 19 20 22 24 24 28 25 19 16 17 20 21 22 25 23 16 16 23 27 23 22 19 17 16 13 12 10 11 12
15 18 4 3 5 8 13 23 53 4 4 6 1 6 1 10 15 14 15 16 14 13 20 23 18 15 13 14 16 20 21 23 23 21 11 18 24 23 18 18 15 15 14 11 11 9 10 11 10
13 22 7 6 5 5 27 18 21 22 28 27 22 16 7 13 14 17 14 10 9 13 13 10 11 12 12 14 16 18 18 16 13 17 17 18 15 15 15 13 13 12 11 11 9 9 11 9 8
13 24 29 6 3 2 12 27 31 9 9 4 10 19 17 13 17 19 14 10 12 12 12 8 8 10 11 13 16 14 11 11 11 11 11 11 12 12 11 12 12 11 10 9 8 10 10 8 5
9 10 17 11 4 5 9 16 18 6 10 2 7 15 13 15 23 17 12 11 11 12 11 9 8 8 11 12 11 9 9 10 11 11 11 11 11 10 10 10 9 8 8 8 10 11 10 6 5
14 15 11 14 19 3 3 5 3 6 4 12 12 15 12 14 21 12 12 11 9 10 9 8 9 7 8 9 9 10 12 12 11 10 10 11 10 9 8 8 7 8 8 9 9 9 9 7 6
11 19 21 16 10 22 11 11 10 4 6 6 14 7 13 12 14 12 12 10 9 11 10 7 8 9 9 9 10 11 9 9 10 10 11 10 8 6 5 5 5 6 6 7 8 9 9 7 5

GFSSGP_700_spd_027.txt.gz
Wind_Speed
14 13 11 12 9 9 12 6 10 9 10 13 10 6 6 9 12 7 6 13 3 5 12 13 12 17 20 18 16 14 13 12 10 8 11 14 17 19 21 20 22 25 27 30 26 24 19 12 9
15 14 14 14 10 11 11 10 11 12 11 11 10 11 9 8 12 6 9 12 4 9 11 10 11 14 17 16 16 16 14 12 10 8 8 11 12 14 15 17 18 20 23 27 30 29 29 26 16
15 15 17 12 18 17 8 16 13 6 10 11 8 11 10 11 13 8 15 8 7 9 9 7 8 9 14 16 14 13 12 11 9 9 9 9 10 11 11 13 15 17 20 23 24 26 27 29 30
15 18 20 21 20 22 12 15 15 6 11 10 8 6 6 8 18 17 10 8 7 10 9 7 6 8 11 13 13 7 7 6 6 7 8 10 11 12 11 11 13 14 16 19 19 21 25 25 27
15 20 25 25 30 20 20 17 11 7 14 12 10 6 5 14 16 14 9 8 4 6 6 4 5 5 6 7 10 11 6 5 4 6 8 10 13 14 14 12 12 12 13 16 16 18 20 23 24
17 22 19 31 31 26 20 20 9 5 16 8 11 9 11 14 13 12 9 6 3 1 2 4 2 5 7 7 10 10 7 6 8 9 10 11 14 16 17 15 14 14 14 15 16 17 18 19 21
19 22 29 30 29 26 24 18 16 10 14 15 12 18 13 12 17 14 8 2 4 6 2 2 5 8 7 7 10 9 9 10 10 11 14 14 15 18 19 19 18 18 16 16 19 18 17 19 19
22 23 28 33 30 26 16 21 17 18 15 15 17 17 16 14 16 9 4 3 4 11 9 9 8 8 10 12 13 10 12 14 15 17 15 18 17 17 20 22 21 21 20 19 20 20 19 21 20
28 31 28 33 31 28 20 14 22 26 20 17 10 12 15 13 12 12 10 7 7 8 12 13 12 13 14 14 14 12 16 16 16 18 18 18 20 19 19 22 23 24 24 23 23 23 21 23 23
36 39 40 34 27 25 22 19 22 28 26 20 12 16 16 13 12 14 15 16 16 10 13 20 22 21 16 17 15 16 18 20 20 19 20 18 19 24 22 22 22 25 26 26 26 25 24 24 26
43 49 39 36 29 25 26 29 23 31 33 30 22 22 24 23 23 22 22 18 16 16 18 17 17 18 18 19 19 19 20 23 22 23 22 20 20 22 27 24 22 23 26 27 27 26 26 26 28
47 49 45 39 36 32 31 31 36 36 36 33 32 32 32 30 31 34 31 32 32 29 26 23 20 20 19 19 22 23 25 24 27 25 25 24 20 21 23 28 28 28 27 28 28 27 26 28 28
52 50 49 46 43 39 35 40 41 45 42 39 38 38 37 41 40 39 40 38 39 36 33 31 27 24 24 26 27 28 27 25 26 28 28 26 25 22 30 34 34 26 29 31 28 26 27 29 27
48 50 52 49 47 45 42 46 46 52 48 47 40 40 41 42 40 38 41 41 42 35 34 33 33 30 32 32 33 29 29 26 27 28 29 29 28 22 25 31 34 34 27 33 27 23 29 33 30
51 46 38 48 51 51 44 50 63 52 51 51 50 51 50 45 37 36 37 42 41 38 37 36 33 32 31 33 30 31 28 27 27 27 29 26 29 24 28 31 32 35 30 29 19 31 32 31 35
37 41 42 50 50 52 42 62 61 50 52 54 51 50 50 47 43 40 40 42 43 42 40 39 37 37 35 33 29 30 29 28 27 28 27 27 30 29 26 30 33 34 33 26 31 32 32 31 34
26 39 42 38 35 42 31 61 51 50 37 43 43 46 47 49 47 46 44 45 44 44 42 42 39 41 36 31 28 27 29 30 31 26 30 31 29 26 25 29 31 32 30 26 26 28 30 29 30
30 30 33 34 29 33 42 64 50 41 45 50 51 51 51 52 53 48 47 52 49 45 45 44 44 43 32 29 30 27 30 28 31 31 29 29 25 25 27 28 30 28 22 23 27 28 30 28 29
23 17 26 24 22 27 39 44 46 47 53 54 55 53 52 53 50 48 45 45 50 50 48 47 45 33 29 27 30 31 28 28 29 31 29 30 23 25 28 29 27 24 19 20 32 32 27 25 25
28 22 13 17 22 28 26 36 42 43 49 51 50 49 49 49 47 45 41 38 37 41 44 39 31 30 29 28 27 26 28 26 26 27 26 28 25 29 29 30 25 21 22 28 28 25 23 24 24
26 32 31 16 18 25 23 38 40 47 48 48 48 48 47 47 45 42 35 33 33 34 32 30 28 27 29 28 27 25 26 25 25 23 26 26 25 25 25 25 22 22 31 27 26 21 22 22 20
26 15 17 26 22 23 14 15 26 32 47 51 49 47 44 41 40 34 29 25 23 26 29 30 31 30 27 26 26 25 24 25 22 21 25 27 25 26 25 24 24 26 27 24 21 20 19 18 15
26 26 16 12 16 17 24 18 38 24 35 42 46 41 34 31 32 31 33 33 30 30 29 27 28 30 28 27 29 28 25 23 20 23 25 24 27 27 24 24 26 24 25 21 19 16 16 14 12
14 15 22 22 19 18 26 17 43 33 33 34 30 30 29 27 28 23 26 31 32 31 27 28 26 24 25 25 23 26 20 21 21 20 24 26 25 24 24 26 21 21 20 16 15 15 13 11 11
12 13 9 13 15 18 13 19 43 2 2 3 7 7 10 8 14 23 18 17 17 18 17 16 18 20 21 23 21 19 16 17 19 21 21 22 24 23 24 22 19 19 16 14 13 12 11 9 10
18 24 11 13 12 17 18 18 18 20 22 14 14 12 12 8 14 17 16 16 14 12 12 14 16 13 12 13 14 14 15 17 19 20 22 24 23 22 19 18 17 15 13 11 10 10 8 8 9
17 17 25 5 6 9 18 24 29 9 9 6 6 12 16 11 17 18 19 16 14 12 10 11 11 10 13 12 13 13 15 16 16 18 17 18 18 16 16 14 12 10 10 10 9 8 7 7 8
14 11 16 15 6 8 9 22 14 10 11 12 6 10 15 14 18 18 20 17 12 10 9 12 10 9 10 12 13 13 13 13 14 13 13 14 15 14 11 8 8 8 8 7 7 8 7 6 8
17 11 12 16 17 3 2 3 8 13 13 7 5 9 11 11 17 20 19 14 11 9 13 10 9 9 9 9 10 11 10 10 11 12 13 14 10 7 5 5 5 5 6 5 7 8 7 7 9
14 12 14 16 24 19 12 7 11 13 10 7 18 7 10 15 20 21 17 13 9 13 13 10 9 8 7 7 7 7 9 10 11 12 11 7 5 3 3 3 4 4 4 5 6 8 8 9 9

GFSSGP_700_spd_030.txt.gz
Wind_Speed
13 13 11 12 7 11 18 14 11 13 11 18 15 12 16 11 16 3 8 18 7 7 9 10 12 17 16 17 16 14 14 12 11 8 10 11 13 15 15 16 18 21 24 25 25 28 29 27 20
14 14 14 10 12 17 19 15 16 13 11 18 13 10 17 14 15 11 9 18 8 8 9 9 9 14 15 15 15 14 13 12 9 8 6 7 8 9 10 11 13 16 19 19 20 24 26 26 28
13 16 12 11 20 21 12 14 15 11 14 14 11 13 13 13 15 11 14 14 9 7 9 9 9 10 12 14 13 9 9 9 6 5 5 6 7 8 9 10 10 12 14 15 14 16 18 21 23
13 16 18 18 21 22 13 10 13 8 13 17 11 11 15 16 13 15 18 11 9 8 10 9 8 8 8 10 9 5 3 4 2 4 5 6 8 10 11 11 11 12 12 13 13 14 15 17 19
13 15 18 22 27 21 17 13 11 7 10 14 16 12 12 13 16 18 16 11 6 7 8 8 5 6 4 5 6 4 1 2 2 4 6 7 9 10 12 13 13 13 13 14 15 15 16 17 17
12 14 20 28 25 24 21 15 13 11 12 15 16 13 12 16 18 21 16 11 6 6 7 8 3 2 1 2 4 4 4 6 7 8 9 10 12 14 14 15 16 16 16 16 16 17 16 16 18
18 17 25 25 23 25 22 18 14 10 14 15 15 15 13 21 24 21 17 12 11 10 9 8 5 3 3 7 7 7 7 9 11 11 12 14 15 17 18 18 18 17 17 17 18 18 19 17 18
23 19 25 27 29 27 16 16 20 15 14 16 16 17 17 23 22 23 19 12 12 14 12 11 8 4 5 8 12 11 9 10 13 17 19 18 18 19 19 20 20 20 20 20 20 21 21 21 19
28 27 30 29 27 23 16 17 18 17 19 18 16 12 16 22 25 24 17 16 15 17 18 17 14 11 10 12 13 15 13 11 15 18 20 23 21 21 22 23 24 23 23 23 22 22 23 24 23
35 33 37 29 24 23 21 18 17 19 22 22 17 19 22 24 23 19 18 15 14 15 17 20 19 18 20 19 18 16 17 15 15 20 24 27 26 23 25 26 27 27 24 25 24 24 25 25 26
37 45 32 32 28 25 25 27 20 22 27 27 21 19 22 25 30 29 18 16 16 18 20 21 21 24 26 25 23 23 23 21 20 24 25 28 28 26 25 25 25 29 29 25 24 25 28 28 27
38 39 39 34 28 29 33 28 32 29 29 29 27 29 27 28 28 30 28 22 26 24 21 23 23 22 24 25 26 24 23 23 25 26 25 28 29 28 26 24 28 31 32 37 22 23 32 30 26
40 44 35 35 31 30 37 41 37 37 31 31 40 38 34 31 34 34 32 31 31 35 35 32 33 31 28 28 27 25 24 26 30 31 29 29 29 29 28 31 29 30 35 30 21 27 24 28 28
36 36 43 38 32 32 38 47 32 46 36 41 43 42 37 38 39 40 41 41 38 38 42 36 37 33 32 31 30 30 31 34 34 37 31 28 30 32 31 29 28 32 37 29 33 23 29 28 35
36 37 33 35 43 40 27 44 55 49 39 37 50 45 43 44 43 43 42 41 37 36 39 41 38 37 36 35 30 29 31 35 33 34 33 30 31 31 31 29 33 33 36 35 31 30 26 35 37
25 33 41 52 36 38 35 48 64 50 48 45 53 52 50 49 50 50 50 48 43 41 40 38 38 40 38 39 36 33 33 32 33 34 34 30 31 30 32 35 36 32 36 36 36 33 35 37 37
31 42 45 46 41 39 30 56 68 51 40 44 40 51 55 52 54 55 51 49 49 47 46 45 42 42 41 41 38 34 31 30 30 33 35 35 29 30 34 37 35 32 34 34 33 32 35 36 34
43 37 41 42 36 38 44 53 48 32 27 42 45 40 40 52 58 51 51 50 50 50 49 49 46 43 41 40 40 38 32 32 32 31 31 34 33 30 31 32 30 32 33 30 30 27 30 32 31
35 36 35 35 35 34 45 53 48 43 44 43 37 37 39 41 54 56 55 53 53 49 45 45 46 46 43 42 38 34 33 34 36 34 35 30 34 30 29 28 31 32 30 29 25 25 30 28 27
35 37 40 27 25 33 40 45 42 40 43 43 43 44 47 54 57 56 55 56 50 44 41 39 40 39 38 34 32 33 32 30 28 33 32 29 30 30 27 28 28 30 29 27 21 32 32 28 26
31 36 36 36 21 27 28 36 38 38 35 38 41 45 49 51 52 50 50 47 43 44 40 39 39 34 32 32 34 34 32 30 27 25 23 25 28 26 30 27 28 28 29 29 29 29 28 27 24
34 31 29 36 34 35 25 28 35 34 37 41 42 40 43 45 45 45 44 41 39 39 38 38 37 34 35 33 32 31 31 27 27 26 24 25 26 28 28 27 29 28 28 29 27 25 26 24 24
25 29 29 26 34 38 41 30 34 30 34 33 31 34 35 41 39 38 35 35 34 34 34 32 31 31 34 34 32 32 28 27 28 29 27 28 28 27 25 26 28 27 26 26 24 23 22 22 21
20 19 27 28 24 25 35 30 32 31 35 26 27 29 28 30 31 34 27 25 30 35 36 29 26 25 29 34 31 31 31 31 29 28 27 27 27 27 27 27 27 26 23 22 22 20 22 21 17
16 22 17 22 25 19 30 27 30 3 11 12 11 12 14 17 23 28 30 29 25 25 29 30 28 28 25 25 26 27 27 30 28 26 26 25 24 25 25 25 23 21 21 21 19 20 18 16 14
27 27 26 18 16 22 38 20 27 21 25 14 12 12 12 13 15 21 29 21 15 17 17 18 17 17 18 20 20 22 23 23 23 24 23 23 23 24 25 22 20 21 19 18 17 15 14 12 13
28 24 29 34 29 23 31 35 31 17 7 5 4 8 12 18 21 19 17 19 17 14 14 14 14 14 14 14 15 16 19 20 21 21 21 21 21 21 19 18 18 18 17 15 13 12 10 10 10
23 20 11 31 16 18 19 31 21 22 25 11 5 10 12 21 16 17 19 18 16 15 14 12 14 14 15 16 16 17 18 18 19 18 17 17 17 16 15 16 16 14 13 11 10 10 10 10 9
16 15 17 21 30 9 13 21 28 16 18 7 5 13 10 16 17 18 20 18 17 15 12 14 16 14 15 15 15 15 15 15 15 14 13 14 15 14 13 13 12 10 9 9 8 9 9 8 11
8 16 19 9 20 24 16 5 16 24 11 8 14 17 13 13 17 22 21 21 18 13 14 17 16 15 12 12 11 11 11 11 12 13 14 13 11 11 12 10 9 8 8 7 8 8 10 14 12

GFSSGP_700_spd_033.txt.gz
Wind_Speed
12 12 10 10 9 13 23 21 17 17 21 19 14 13 12 10 10 5 11 10 14 8 4 6 9 15 17 17 16 14 12 11 10 11 11 12 13 15 16 17 19 21 22 22 24 25 26 25 26
12 13 11 8 15 23 22 19 20 14 18 17 14 14 13 15 9 10 8 11 17 9 7 5 10 15 16 15 14 13 11 10 8 9 8 8 8 9 10 11 12 13 15 16 17 19 20 23 23
11 13 9 12 24 27 21 21 15 17 12 13 14 15 13 15 15 6 13 14 14 9 6 7 9 13 13 12 10 10 9 7 6 5 5 5 5 6 7 7 9 10 11 12 13 14 15 17 20
9 12 16 19 24 25 24 6 17 18 14 16 16 14 14 17 12 15 15 18 14 9 8 8 9 10 10 9 8 6 6 4 2 2 4 5 6 7 8 8 8 9 10 10 12 13 14 15 15
12 12 20 23 25 23 22 13 13 15 15 18 19 17 15 18 12 21 17 21 14 10 9 9 8 8 8 6 5 3 3 3 1 3 4 6 8 9 10 11 11 11 11 11 12 14 15 15 15
12 12 21 25 26 24 23 20 19 18 17 17 20 19 17 17 23 21 22 24 15 10 9 13 7 6 6 4 2 1 3 4 6 8 9 10 10 13 13 13 13 14 15 14 14 15 16 16 16
19 20 26 27 26 24 24 22 22 21 20 20 21 22 18 18 18 23 21 18 15 12 9 13 10 6 5 6 6 5 5 7 9 11 13 14 14 16 17 17 17 17 17 17 17 17 18 19 19
22 22 29 30 28 29 22 21 23 22 21 19 19 24 21 16 22 23 20 18 16 14 13 15 12 7 6 6 7 9 10 10 10 12 15 18 20 21 20 20 20 19 19 21 21 21 20 21 22
22 29 34 31 29 28 22 25 22 22 22 18 21 11 14 21 20 23 21 19 17 15 17 18 17 13 11 11 12 12 12 13 12 13 15 19 21 23 22 22 24 23 22 23 22 23 20 21 23
33 34 38 30 26 26 25 24 21 22 26 21 23 18 17 24 21 23 22 20 17 16 17 21 21 19 18 18 20 16 17 18 18 17 16 21 23 26 27 25 27 27 22 25 25 24 24 23 21
36 47 36 33 28 27 28 26 24 26 29 28 25 21 16 18 20 21 21 19 16 17 15 16 25 25 24 25 26 25 24 23 23 22 22 24 27 29 28 30 28 28 25 26 24 30 28 24 22
35 44 41 39 33 26 33 28 29 31 31 26 28 23 23 18 20 24 23 21 19 16 15 17 26 24 26 28 29 28 27 27 25 26 26 29 29 30 30 30 31 28 29 31 32 29 19 21 23
44 42 41 38 31 34 27 35 34 32 32 30 29 28 23 23 22 22 22 24 29 31 26 24 27 29 27 29 31 33 31 30 26 26 31 33 36 35 32 32 33 31 32 31 34 28 27 26 28
35 40 44 39 37 36 40 39 31 40 33 36 35 35 33 32 29 26 27 27 28 29 27 32 34 42 40 37 38 35 34 31 30 32 32 33 37 38 34 33 32 34 33 32 33 32 32 28 28
34 39 38 41 40 45 36 41 43 45 35 37 39 38 37 35 32 29 27 36 41 42 40 37 35 35 38 36 39 36 35 33 32 35 34 37 34 33 33 33 33 34 35 34 35 34 32 32 30
20 30 42 52 40 40 39 55 50 42 40 42 40 39 39 38 37 34 31 33 34 43 46 42 40 38 39 37 40 41 38 38 36 34 38 35 35 33 34 33 36 34 36 35 34 31 35 33 33
34 43 41 45 40 41 40 50 54 48 42 40 43 44 43 41 41 40 37 35 37 45 47 49 44 44 44 43 40 42 42 41 37 35 36 36 34 34 35 37 35 33 34 33 29 35 34 31 33
36 36 41 45 39 36 43 51 49 44 44 45 45 42 43 45 43 40 37 38 46 48 50 47 45 44 45 46 44 41 43 41 37 37 38 35 33 32 35 40 34 30 29 28 31 33 28 28 25
33 38 42 40 36 37 43 44 54 47 40 39 43 43 49 51 44 37 35 33 49 56 57 56 52 50 48 47 45 46 44 39 39 34 36 35 35 38 37 34 33 30 26 28 27 26 24 16 31
30 34 42 42 37 31 37 42 51 42 45 44 42 44 42 36 39 41 40 46 60 62 61 57 55 51 44 42 39 38 41 41 36 34 33 33 36 35 30 28 31 26 26 26 27 28 24 32 33
26 32 35 36 35 36 37 43 45 46 41 41 43 43 43 43 44 45 47 54 57 59 62 59 51 45 41 39 38 36 36 34 36 33 29 32 27 23 23 26 28 26 26 26 27 27 28 28 28
28 25 29 35 31 37 40 29 41 38 41 41 39 39 39 41 41 44 45 44 46 48 42 45 44 41 41 39 37 33 32 32 31 31 33 28 27 26 26 26 26 25 25 29 26 27 26 27 27
29 25 27 30 37 35 43 38 41 31 37 37 35 36 37 39 39 39 38 36 35 32 36 41 39 36 36 35 32 33 31 27 29 31 30 30 29 28 27 26 24 24 25 26 26 25 25 26 28
20 23 26 29 34 30 39 44 44 40 34 29 29 32 32 32 31 32 31 29 29 31 34 34 33 34 29 29 28 32 32 32 34 32 29 29 30 28 27 25 24 24 25 24 24 24 24 26 27
20 19 18 20 22 20 37 41 35 40 36 31 31 30 26 23 27 24 26 28 24 29 31 30 32 30 25 23 27 33 36 35 35 33 32 31 29 26 25 25 24 24 23 23 22 24 26 26 24
22 26 21 17 16 20 39 37 39 34 30 16 17 20 19 21 20 19 20 21 21 22 21 21 24 31 29 26 29 32 34 35 34 32 30 27 25 25 25 23 23 23 21 21 24 25 24 22 18
22 29 28 31 37 26 35 38 46 32 24 22 14 12 14 17 18 18 17 20 20 18 20 18 19 22 23 23 24 24 26 29 27 23 22 22 24 23 22 22 21 19 20 21 23 23 17 16 15
24 21 20 14 19 23 23 31 35 42 31 20 14 10 10 14 14 14 16 17 22 18 18 17 17 18 20 21 20 20 19 17 16 19 21 22 21 20 20 17 18 19 21 21 18 17 15 14 13
11 17 18 14 23 12 16 17 24 38 40 25 12 7 8 10 7 13 18 18 19 19 19 19 18 19 18 18 17 15 15 17 18 19 20 19 18 17 17 16 18 18 17 15 13 14 12 12 13
15 13 20 8 16 32 19 28 11 17 34 24 8 1 7 10 24 22 20 16 17 20 21 19 21 19 16 15 15 15 16 16 16 16 16 15 16 16 16 15 14 13 13 12 11 11 12 12 12

GFSSGP_700_spd_036.txt.gz
Wind_Speed
10 10 11 9 8 11 21 24 18 24 18 17 13 9 10 11 2 11 18 15 5 6 8 5 4 11 15 15 15 14 13 12 11 12 13 13 14 14 15 16 18 19 20 20 21 22 24 25 25
8 10 11 6 13 21 21 17 24 20 15 16 12 9 8 1 5 18 13 9 6 8 10 5 4 9 13 13 13 12 11 10 9 8 9 9 10 10 11 11 12 12 13 14 16 16 17 20 21
7 10 10 6 20 30 24 20 16 18 12 10 12 13 11 5 6 11 12 7 7 9 9 6 4 8 10 12 12 11 9 7 6 6 6 6 7 7 8 9 9 9 10 9 10 12 14 14 15
5 6 12 16 21 23 31 23 21 16 13 14 12 14 11 15 10 15 14 10 9 12 10 7 5 10 9 10 9 9 7 5 3 3 3 4 5 6 7 8 8 9 10 10 10 11 13 14 13
7 11 18 19 22 25 28 26 18 13 12 14 17 18 16 22 10 15 22 16 14 16 11 8 8 5 8 9 8 7 6 5 2 0 2 5 6 8 8 9 10 10 11 11 12 12 12 13 15
11 10 18 22 25 24 26 20 15 15 15 12 18 20 18 22 26 18 21 19 18 18 13 10 11 7 9 7 6 6 6 5 5 5 6 8 10 11 11 12 13 13 13 14 14 14 14 15 16
20 19 25 24 24 22 23 24 18 19 18 17 17 22 22 25 19 23 23 22 22 21 16 13 14 10 10 9 8 6 6 6 8 9 10 12 14 15 15 15 15 16 16 15 16 17 16 17 18
20 22 26 28 28 27 22 19 20 22 22 19 19 26 15 32 21 22 21 16 14 19 18 16 18 13 11 10 10 9 9 9 9 8 11 13 15 17 19 19 18 18 19 20 20 19 17 17 18
22 31 35 29 25 25 21 21 18 20 20 23 19 9 21 23 18 26 22 21 17 16 18 18 20 17 15 14 12 11 10 10 11 12 13 15 17 20 22 21 21 21 22 22 22 21 21 22 22
29 37 42 29 25 25 22 23 21 23 24 23 19 21 10 22 29 27 24 23 20 18 20 25 18 20 19 18 16 16 14 14 15 16 18 18 19 24 25 25 24 24 24 23 23 24 24 23 21
34 48 37 34 28 27 26 26 20 22 25 26 28 21 15 11 18 18 22 22 20 22 21 21 18 18 23 23 23 20 21 20 20 21 23 23 24 28 29 28 26 26 26 26 26 26 27 22 22
34 42 41 38 36 32 30 29 31 30 29 28 24 26 20 20 23 25 25 23 21 34 26 18 17 24 20 26 27 25 25 25 24 25 26 26 26 30 35 34 31 29 30 28 27 28 27 23 21
39 39 39 39 38 36 35 35 31 31 30 30 26 26 30 32 28 30 34 30 28 17 20 16 17 27 19 25 27 29 27 29 31 29 29 28 27 31 35 38 36 33 33 31 29 29 30 24 25
32 36 38 38 38 36 38 39 33 32 32 33 28 32 27 27 27 23 25 27 34 35 33 33 27 26 25 26 32 36 37 37 36 34 33 30 30 31 33 36 32 33 32 31 29 32 29 31 28
27 34 36 40 39 42 38 42 48 42 35 32 35 33 37 30 29 30 33 31 36 44 43 39 35 34 34 32 30 32 36 37 38 38 36 34 33 32 31 34 32 32 36 33 32 32 25 29 17
21 23 35 45 36 42 34 52 52 44 43 45 38 35 38 36 38 32 32 33 33 40 39 38 39 42 44 40 37 32 32 35 37 39 41 41 36 33 33 34 34 34 36 36 34 33 29 14 19
28 37 33 34 31 36 38 47 47 43 47 42 41 41 41 39 40 41 39 35 34 34 39 42 45 43 42 42 40 38 34 35 37 40 42 43 43 37 34 36 36 35 36 36 29 31 23 20 22
25 29 33 38 36 32 38 45 50 47 42 46 51 45 39 43 45 40 39 39 39 42 45 44 50 48 41 39 35 41 40 40 41 40 41 44 43 38 35 33 32 34 36 32 28 30 23 22 23
27 30 36 40 34 31 36 42 48 44 47 47 45 42 48 45 41 44 41 44 43 47 48 51 52 52 50 40 43 45 43 40 41 41 41 40 42 37 35 32 34 33 31 27 26 26 25 20 20
26 28 34 35 32 32 40 41 39 44 44 41 46 44 41 45 44 43 38 37 40 48 50 53 57 59 56 51 46 46 45 42 40 40 38 40 39 35 33 31 32 30 25 25 24 24 22 23 23
26 28 31 32 29 30 36 41 44 38 34 39 43 38 47 41 47 44 39 45 46 48 51 62 67 65 65 56 52 50 40 40 37 37 32 31 32 29 28 25 24 23 24 24 22 23 24 22 24
31 27 29 28 28 29 29 26 38 42 39 39 36 44 36 38 41 45 47 47 46 51 54 60 64 61 54 44 42 41 40 38 31 31 32 30 28 28 26 26 25 24 23 21 22 24 21 22 25
33 28 28 29 31 32 33 30 38 37 43 39 36 37 45 47 38 43 46 49 54 60 62 58 48 41 38 39 36 35 38 32 28 29 34 30 27 28 27 25 25 25 21 21 23 21 20 23 24
29 29 27 27 30 24 37 33 40 38 40 37 28 30 37 35 31 37 38 41 42 40 36 39 37 34 33 33 31 30 30 26 28 33 31 28 25 24 25 25 25 23 20 23 21 20 21 21 22
23 23 18 20 18 17 34 36 37 36 34 38 33 30 28 26 32 34 32 28 29 33 35 34 39 37 31 28 27 24 23 25 30 34 31 28 27 26 26 24 22 20 21 20 20 21 19 21 21
24 23 14 19 16 19 29 20 32 33 36 37 35 30 25 19 34 28 28 31 30 32 32 31 33 29 26 27 25 21 22 25 33 34 32 32 30 27 23 21 20 20 20 19 20 20 20 23 24
18 16 21 19 30 21 36 39 32 31 32 33 39 36 26 23 23 24 23 21 21 22 26 34 24 24 25 29 25 23 24 29 31 33 32 31 26 21 19 20 19 17 18 19 20 22 23 24 20
20 18 19 15 12 17 22 31 22 24 27 34 32 30 26 22 23 21 22 21 19 25 30 30 22 23 20 24 26 26 26 29 28 26 23 19 17 18 17 17 14 16 20 21 20 23 21 18 15
22 13 19 23 9 5 8 19 30 17 17 28 30 26 22 16 19 22 19 20 28 29 34 26 21 20 19 19 20 21 22 19 15 14 14 16 14 14 12 15 15 20 20 20 20 19 15 13 13
25 22 12 13 13 18 22 39 30 29 16 17 32 21 17 22 28 20 26 31 30 31 29 24 21 21 18 16 15 15 14 14 13 13 13 14 14 13 15 16 18 19 19 17 14 12 11 11 13

GFSSGP_700_spd_042.txt.gz
Wind_Speed
7 10 13 13 10 13 20 26 19 22 27 21 21 32 22 14 26 21 15 7 10 10 10 9 6 6 7 12 15 17 18 18 17 16 16 16 16 16 16 15 15 16 16 16 17 18 18 18 18
6 10 13 16 14 20 25 22 26 17 15 15 26 9 17 18 16 9 17 12 8 8 8 8 6 5 6 9 13 15 16 17 15 14 13 13 13 13 13 13 13 12 12 12 13 14 15 16 16
6 9 12 13 22 29 25 17 21 16 15 18 20 14 18 12 14 9 15 10 20 13 11 9 8 1 4 5 11 13 13 13 13 12 10 9 9 9 9 10 10 10 10 11 12 14 14 14 15
9 10 14 19 24 24 22 15 13 16 14 9 9 13 20 17 17 11 9 17 19 16 15 10 7 3 2 5 8 12 12 11 10 8 7 7 7 6 7 7 7 8 8 9 9 9 10 11 15
13 14 17 21 29 26 21 16 9 10 9 8 4 13 11 13 14 10 11 18 13 19 16 11 7 6 3 5 5 9 10 9 7 6 5 4 4 5 5 6 7 8 8 8 9 9 9 9 11
18 18 18 23 27 23 23 14 9 12 18 17 12 17 18 15 14 14 12 10 13 15 14 13 9 11 6 6 6 7 8 7 5 3 2 2 4 6 7 8 9 9 9 9 9 9 10 10 10
26 25 28 25 26 24 21 13 11 14 15 11 12 8 20 21 18 15 14 14 14 19 15 14 12 11 9 8 8 8 7 8 6 4 2 3 5 7 8 9 9 10 11 11 12 11 11 11 11
29 30 34 32 29 27 14 15 10 12 14 16 11 13 6 12 17 19 17 16 21 21 20 16 14 12 10 8 9 8 8 9 8 7 7 6 6 8 11 13 13 13 14 14 15 15 14 13 12
30 37 42 39 31 27 8 19 13 12 16 7 11 18 9 12 19 19 26 26 25 26 24 21 18 14 13 11 12 11 12 13 12 11 11 11 11 13 15 17 19 19 17 16 17 17 16 17 15
34 42 46 40 34 31 20 20 22 19 16 8 9 6 21 12 20 27 31 25 21 26 27 25 23 19 17 16 14 15 15 14 13 12 13 13 15 17 18 20 20 22 22 20 21 22 19 20 18
37 46 42 41 36 33 30 34 27 25 21 11 2 10 7 15 20 24 30 30 26 25 25 28 26 24 20 19 17 19 18 16 15 15 17 18 18 19 21 22 23 22 24 23 22 24 23 22 22
36 39 38 38 37 38 38 34 37 33 28 20 13 9 7 12 28 28 29 30 29 32 29 30 30 27 26 25 23 22 23 20 19 19 20 21 23 26 24 25 26 25 25 28 24 24 24 24 24
32 33 33 32 33 35 32 40 41 41 33 27 23 18 11 15 14 33 34 25 27 28 34 34 37 31 24 23 31 30 27 22 18 19 21 22 24 28 28 26 28 28 28 29 27 25 25 25 24
29 32 34 35 34 31 29 33 36 46 38 35 33 27 20 11 19 21 27 29 24 29 30 38 42 39 38 26 33 31 21 19 17 17 18 18 20 23 25 27 29 29 30 30 30 27 26 27 25
31 36 38 37 35 33 30 38 42 44 43 41 39 36 28 21 11 18 21 30 32 32 29 29 40 44 41 29 30 33 25 21 21 22 22 19 19 22 24 27 28 30 33 31 32 29 28 29 26
23 25 33 24 23 28 26 48 42 40 41 44 43 46 38 30 29 25 17 25 28 31 34 33 27 22 31 34 37 33 30 28 28 28 25 24 24 25 26 28 28 31 33 32 29 27 27 26 26
12 20 24 26 18 14 18 43 40 39 40 43 47 47 48 40 36 36 31 25 25 29 29 29 27 29 29 27 29 36 34 35 33 34 33 30 33 31 29 29 29 30 32 31 28 25 26 27 28
16 22 22 21 17 14 16 37 34 32 32 35 40 49 49 53 45 40 40 36 28 29 34 34 34 37 40 38 42 43 42 42 39 39 40 38 39 35 37 35 31 30 31 30 27 25 29 29 28
23 28 29 24 22 24 25 34 34 33 32 34 36 39 34 51 60 52 52 47 37 42 44 48 46 41 41 42 41 41 46 43 42 43 43 44 42 42 44 35 29 27 28 27 26 26 28 24 23
16 20 23 23 14 19 26 39 41 38 37 36 37 34 38 37 44 51 47 55 57 50 41 39 41 43 42 41 39 44 44 45 42 45 48 48 45 48 42 35 28 23 21 22 22 24 21 21 23
19 19 21 24 25 28 25 37 42 44 40 39 41 40 35 32 38 39 36 39 44 38 53 45 41 40 41 43 42 44 44 46 46 49 50 53 54 51 38 32 25 19 19 20 23 23 22 21 23
26 27 31 28 27 19 19 25 37 38 41 37 41 44 42 36 28 35 38 36 39 38 33 52 47 44 45 43 47 49 49 48 48 51 53 56 55 46 36 28 20 18 20 22 23 23 21 22 20
24 22 28 33 32 29 33 22 43 29 35 41 36 35 44 43 37 27 29 31 36 38 34 40 39 40 39 43 46 48 49 51 51 51 57 60 45 34 31 23 16 19 22 25 23 22 19 19 19
21 25 28 28 26 17 30 22 39 31 32 28 24 24 25 39 39 32 30 32 36 39 41 37 47 43 41 43 46 49 51 51 52 58 58 45 37 32 25 18 16 21 22 22 22 21 19 20 21
20 21 8 4 3 11 19 22 42 29 30 33 31 30 29 29 38 39 35 38 38 38 40 41 45 49 51 54 52 54 55 54 56 57 47 35 32 27 20 17 20 21 22 22 22 21 20 20 19
19 16 6 5 2 8 24 11 30 24 30 37 39 36 33 32 35 43 37 30 36 42 46 48 50 51 59 62 59 60 59 57 57 48 35 32 27 23 20 21 21 20 24 22 21 21 21 19 19
16 17 22 18 24 10 11 27 26 27 14 16 20 28 36 37 36 48 42 35 35 35 43 50 47 51 58 58 58 64 59 59 44 33 32 27 22 22 22 21 22 25 25 22 22 21 20 19 14
26 21 11 10 3 5 9 17 18 22 23 20 25 29 27 35 43 42 46 39 37 37 35 42 39 39 38 40 39 40 39 35 34 32 29 23 23 22 22 23 24 24 21 22 23 21 17 15 15
27 22 16 13 10 3 5 9 13 20 32 29 30 30 29 32 34 40 42 41 32 36 29 39 41 40 41 34 34 34 33 32 32 30 26 25 25 23 23 24 24 20 22 23 22 16 13 15 17
16 25 21 14 6 11 5 22 22 24 22 26 36 39 30 32 35 32 44 41 38 33 36 36 34 35 33 34 32 34 34 31 28 28 27 26 24 23 23 20 19 21 22 18 14 15 16 17 15

GFSSGP_700_spd_045.txt.gz
Wind_Speed
7 12 14 15 11 13 21 22 21 16 20 23 22 18 24 30 35 25 22 22 12 11 7 9 10 13 15 13 14 15 18 19 19 19 19 19 20 19 19 18 18 18 18 18 19 19 19 19 20
5 11 14 16 14 20 21 19 23 16 12 14 15 17 15 16 16 25 25 19 14 9 8 7 10 10 11 12 13 15 17 17 18 17 17 16 16 15 16 15 15 15 15 16 17 17 18 19 19
9 8 14 12 22 32 22 17 11 12 13 10 15 14 7 12 17 23 22 21 18 15 9 6 9 9 10 12 13 13 15 16 16 16 14 13 12 12 11 11 12 12 12 12 13 13 14 15 17
15 10 13 19 25 26 24 21 12 9 13 7 15 7 10 15 25 20 22 23 19 15 13 9 9 9 10 11 10 10 12 13 15 13 11 10 10 9 9 9 9 9 9 9 9 11 12 13 13
20 17 17 21 30 29 22 15 9 6 6 8 15 15 12 17 18 17 21 20 17 20 16 12 10 10 10 10 9 7 8 11 11 11 11 10 8 6 7 8 8 8 9 9 8 8 9 10 10
24 23 18 24 29 24 22 18 14 10 3 7 13 7 8 19 16 17 19 20 19 13 16 14 13 12 11 12 7 6 7 7 8 8 7 6 5 5 6 8 8 9 9 10 10 10 10 10 10
28 28 29 29 29 24 16 15 14 11 7 6 16 6 10 20 18 21 22 23 22 21 17 14 14 14 13 11 8 7 5 5 4 4 3 2 2 3 5 7 9 10 10 10 11 11 11 12 11
31 33 33 35 33 28 17 14 15 12 11 4 13 3 10 19 19 27 22 25 26 25 20 16 15 15 11 10 10 7 6 4 4 4 3 3 4 5 7 10 13 15 13 12 14 14 14 14 14
33 37 40 40 36 31 15 15 18 15 16 5 8 2 6 13 15 27 19 27 28 29 23 21 19 17 14 11 12 10 7 7 6 5 6 8 9 10 12 13 16 17 19 17 16 17 18 17 17
36 44 44 41 32 32 25 25 20 26 20 10 5 5 13 15 19 20 16 26 30 30 27 25 21 19 17 15 13 11 11 9 8 8 9 9 11 12 14 15 18 19 20 19 18 17 19 20 19
38 45 38 35 32 33 31 36 30 31 29 19 7 7 10 10 27 25 23 23 26 25 29 24 25 25 23 20 18 16 14 14 13 13 13 14 16 18 16 18 20 20 21 21 21 19 19 19 20
33 38 38 38 37 35 37 36 42 37 36 27 18 10 7 9 17 19 28 30 32 29 27 33 29 28 27 25 23 21 20 20 17 17 17 16 18 20 21 22 23 23 21 24 23 22 21 20 21
30 32 33 33 34 35 37 40 40 47 38 36 31 26 15 11 9 19 23 32 24 32 26 32 30 31 29 29 27 25 23 24 22 22 23 19 13 19 21 23 23 23 23 25 24 25 26 24 23
27 30 34 33 33 34 34 37 36 46 44 40 37 34 26 21 12 18 28 33 36 30 28 32 34 34 36 34 31 29 27 30 28 27 25 20 16 16 18 19 22 23 23 26 27 29 29 28 25
25 29 30 29 28 32 30 39 44 41 42 42 38 37 33 27 20 14 12 29 38 34 26 31 37 35 37 39 36 31 28 31 32 26 22 21 20 18 17 20 23 23 25 28 29 29 29 28 25
21 22 22 11 5 14 22 49 37 34 38 41 48 40 36 30 29 23 17 14 28 33 35 29 33 37 39 43 44 36 35 35 35 26 22 25 25 23 23 26 25 26 28 29 29 29 28 27 24
5 8 15 9 1 6 21 36 29 28 32 35 45 51 47 40 33 31 28 21 20 27 34 33 33 34 33 36 40 38 39 41 34 33 31 33 32 32 28 30 31 28 35 31 30 28 28 26 24
15 19 17 18 11 14 19 31 29 29 31 33 35 42 48 55 47 40 34 30 27 26 29 32 33 35 32 32 32 34 36 32 32 33 36 39 40 36 31 33 34 36 38 36 31 30 27 24 24
14 14 15 12 9 18 23 34 34 29 30 31 36 38 41 42 48 49 42 38 34 34 33 34 31 30 34 36 36 37 35 34 35 37 34 36 34 38 35 36 38 41 38 35 31 28 22 21 22
12 17 19 19 18 20 25 37 37 34 35 35 36 39 39 42 40 39 42 40 42 33 38 41 36 33 41 46 44 46 41 37 37 36 36 36 38 35 39 42 44 45 38 33 27 25 21 20 20
15 19 23 27 30 26 31 45 37 36 37 37 37 38 41 40 43 39 39 41 49 40 44 43 39 43 43 38 41 45 44 45 41 40 40 37 34 39 43 45 48 45 33 27 25 25 20 21 21
17 18 24 28 27 21 24 24 42 38 38 35 35 36 35 42 41 41 45 43 46 56 53 48 44 37 48 43 43 48 44 43 40 41 36 34 38 42 45 48 51 33 26 25 23 23 21 21 23
13 17 24 27 29 28 26 17 51 34 41 41 35 31 28 30 42 45 40 40 39 45 48 44 56 42 47 56 48 44 45 40 34 37 37 37 41 45 48 51 40 27 26 24 23 24 23 23 24
16 21 27 22 20 7 26 21 50 41 40 36 27 23 24 26 26 37 46 42 37 41 42 38 39 45 45 49 56 53 51 41 36 36 38 40 43 46 51 52 34 27 25 23 22 23 22 21 20
15 19 7 5 3 5 7 12 36 23 26 26 31 33 32 28 27 31 40 50 44 37 41 42 36 41 42 40 42 45 47 39 37 39 40 43 47 50 53 41 28 24 25 22 21 21 23 22 19
23 19 5 5 4 10 31 10 26 21 17 21 22 25 30 35 37 32 32 43 52 43 40 45 47 41 40 41 36 37 41 42 42 43 44 47 52 49 53 31 26 26 23 21 21 23 24 20 20
14 15 20 21 24 11 14 23 29 24 9 15 22 21 23 25 33 42 39 35 46 49 45 46 46 50 46 40 36 37 39 41 43 46 45 48 49 49 38 27 27 24 22 22 24 24 21 20 21
25 26 13 11 4 7 10 15 23 18 22 16 20 25 23 24 30 33 40 41 40 52 46 46 49 51 53 48 42 43 45 45 45 44 47 48 45 38 30 26 25 25 24 25 25 21 20 22 19
20 21 21 18 15 4 8 14 23 16 18 25 27 23 25 25 25 34 36 43 46 50 52 45 48 46 47 46 38 35 31 33 37 39 36 34 34 31 27 25 24 25 26 25 21 21 21 21 17
17 21 19 16 8 14 18 37 37 33 27 22 24 30 30 31 31 30 37 35 41 44 53 46 43 44 44 37 33 35 37 35 36 36 35 36 33 29 27 26 26 26 24 21 20 19 19 17 17

GFSSGP_700_spd_048.txt.gz
Wind_Speed
5 11 15 15 11 13 18 13 16 6 10 12 17 19 19 18 23 15 9 22 18 15 13 15 12 15 17 16 17 17 18 20 22 22 24 24 24 24 24 24 23 23 22 23 22 23 22 21 23
5 9 14 15 14 20 17 15 16 9 8 11 13 14 15 21 23 24 20 15 22 17 12 14 14 14 15 16 16 17 17 19 20 21 21 21 21 20 20 20 19 18 18 18 18 18 18 16 18
10 7 13 12 19 32 12 8 6 5 6 8 9 8 18 20 15 19 15 21 27 21 17 17 16 13 14 15 15 16 16 17 19 20 19 17 17 17 16 16 15 14 13 12 12 12 13 13 14
16 12 13 19 21 24 24 14 5 13 5 1 4 6 14 17 14 14 16 30 29 21 19 20 19 15 14 14 14 14 16 17 18 17 16 15 14 13 13 12 11 11 9 8 8 9 10 11 12
21 17 18 19 24 27 23 17 14 11 6 3 5 8 12 17 13 14 19 30 28 21 22 21 20 18 13 14 13 13 15 15 16 15 13 11 12 10 10 9 9 9 9 8 9 9 10 10 11
25 23 21 24 24 22 17 18 17 15 12 3 4 4 7 13 14 16 25 28 27 23 22 20 20 20 14 15 14 14 14 12 11 11 10 9 9 9 8 8 8 9 10 10 10 11 11 11 11
30 28 33 31 31 23 15 15 13 14 14 2 4 8 11 14 16 16 21 30 28 25 23 21 19 20 20 16 16 14 12 11 9 7 6 5 5 4 5 6 8 10 10 11 12 13 13 14 15
33 32 34 32 32 29 20 18 14 13 14 2 5 1 12 15 20 21 25 29 30 27 25 23 21 22 20 18 17 16 13 10 8 5 3 1 1 2 5 7 9 11 12 13 12 13 15 15 17
33 35 40 38 35 33 27 21 22 20 16 8 2 4 7 12 20 22 32 30 30 29 26 25 24 21 19 17 17 16 16 12 9 7 5 5 6 7 7 9 11 14 15 15 14 13 14 15 16
35 45 43 39 25 28 37 33 24 30 24 17 8 5 3 10 20 18 32 26 26 30 27 27 24 24 20 18 17 16 14 13 9 7 6 7 7 9 10 11 12 15 17 17 16 15 15 15 16
37 42 37 32 31 33 36 42 35 35 31 25 16 12 6 11 18 17 32 22 24 27 30 27 26 25 24 19 17 16 16 13 11 11 8 9 11 13 14 14 15 17 20 19 19 18 17 16 16
29 33 35 38 33 34 34 36 40 39 40 33 27 19 10 10 23 25 28 30 21 28 29 33 30 29 29 26 22 20 18 15 15 13 12 12 15 16 17 17 16 19 21 21 20 20 21 19 18
26 31 31 29 31 35 35 35 37 44 38 39 37 31 20 14 12 30 35 31 31 38 37 36 34 33 32 30 25 24 21 20 19 17 17 17 19 21 20 20 18 20 21 20 22 22 23 23 22
21 26 30 30 30 32 34 34 36 43 39 37 41 39 32 22 15 14 26 30 34 33 34 40 38 37 33 32 28 28 24 24 22 20 19 23 25 21 18 18 19 20 22 22 24 26 26 26 24
16 19 21 23 24 27 26 38 41 35 36 36 36 37 39 36 27 20 18 21 25 27 29 31 33 38 38 36 30 32 31 27 26 24 23 27 28 21 18 18 18 19 24 25 26 29 29 27 26
6 4 3 3 4 6 16 33 24 24 26 33 37 43 39 39 36 30 23 20 24 34 34 35 33 34 38 39 38 37 35 32 29 27 22 31 25 23 21 22 23 24 27 27 29 32 30 29 28
3 6 8 3 4 11 13 15 6 11 20 24 28 36 39 44 40 32 32 29 21 23 35 37 40 37 35 37 35 40 38 41 43 32 36 39 29 32 29 27 26 26 29 26 33 34 31 31 29
7 8 8 8 7 14 22 24 21 23 25 26 25 28 31 32 44 45 37 34 30 25 25 35 33 33 31 36 39 41 42 40 40 44 47 29 27 33 31 30 33 28 29 31 33 34 33 33 30
6 8 10 13 11 22 25 30 26 27 28 28 29 32 34 33 32 36 44 44 36 34 30 34 32 34 37 34 34 38 37 37 42 32 30 27 35 30 31 31 31 30 32 35 40 37 31 31 27
8 11 15 17 21 25 30 38 36 33 33 31 33 34 36 37 36 34 33 44 51 43 37 34 37 33 35 38 35 36 37 39 40 35 32 30 30 32 33 33 33 34 34 39 42 33 30 28 23
8 12 15 20 28 30 32 46 39 35 36 37 36 36 37 40 40 38 36 31 40 48 47 43 42 41 36 34 36 40 42 43 41 41 42 38 34 33 35 35 35 34 37 41 37 28 29 26 22
12 13 17 21 26 19 23 15 39 34 33 35 35 33 34 36 38 40 40 38 35 37 44 50 48 47 46 42 40 41 43 49 49 44 42 36 35 38 36 37 36 36 38 40 28 27 28 24 21
10 12 17 22 22 23 22 11 5 19 30 37 39 41 38 33 32 36 38 43 41 37 37 45 50 52 48 51 51 46 45 45 43 41 41 38 33 39 38 35 36 39 38 40 28 28 27 25 24
10 13 21 15 17 3 4 10 30 25 15 13 21 16 17 21 25 31 34 36 43 45 40 36 41 47 50 50 51 54 51 49 47 42 41 39 34 37 34 36 38 39 40 40 28 28 27 24 21
10 18 6 4 1 5 5 8 36 42 33 23 20 18 24 29 31 31 33 34 37 45 47 42 38 39 41 48 50 54 52 53 51 50 44 42 33 32 34 36 40 39 41 33 28 27 25 21 22
19 18 6 5 3 11 22 13 29 29 28 26 19 19 19 22 26 29 33 37 39 40 46 49 42 42 42 36 42 50 47 40 43 43 40 36 29 31 33 38 38 40 39 29 28 25 23 23 23
15 9 11 18 24 7 13 25 45 34 21 15 14 18 19 22 27 30 31 33 40 41 44 50 48 43 44 45 42 36 42 41 37 34 30 27 30 33 36 37 38 38 32 28 27 25 25 25 22
19 15 8 6 4 5 6 24 27 30 29 23 20 21 24 21 22 26 31 35 36 39 45 48 53 47 44 46 49 47 40 38 38 31 30 29 34 36 38 38 38 34 27 28 27 27 25 23 20
16 12 10 14 15 3 7 13 17 18 19 25 29 37 29 26 30 33 31 36 36 36 42 47 52 55 48 45 45 42 41 41 37 35 31 34 34 37 37 35 33 27 26 28 28 27 26 22 21
11 14 15 9 5 14 19 38 24 24 27 33 29 28 33 35 28 33 29 36 35 34 38 46 50 56 52 43 42 39 38 32 35 31 27 30 35 33 32 32 29 26 27 27 28 26 24 20 21